Resolute,

10:04 AM CST on January 16, 2018 (GMT -0600)
Resolute

Weather History for CYRB - May, 2014

Change the Weather History Date:

Thursday, May 29, 2014

  Actual Average Record
Temperature  
Mean Temperature 15 °F -  
Max Temperature 21 °F 34 °F 35 °F (2003)
Min Temperature 9 °F 26 °F 5 °F (2007)
Degree Days  
Heating Degree Days 50    
Moisture  
Dew Point 13 °F    
Average Humidity 86    
Maximum Humidity 100    
Minimum Humidity 71    
Precipitation  
Precipitation 0.04 in 0.02 in - ()
Sea Level Pressure  
Sea Level Pressure 30.05 in    
Wind  
Wind Speed 9 mph ()    
Max Wind Speed 25 mph    
Max Gust Speed 29 mph    
Visibility 8.1 miles    
Events Snow    
Averages and records for this station are not official NWS values.
T = Trace of Precipitation, MM = Missing Value Source: Averaged Metar Reports

Daily Weather History Graph

Daily Weather History Graph

Search for Another Location

Airport or City:

Trip Planner

Search our weather history database for the weather conditions in past years. The results will help you decide how hot, cold, wet, or windy it might be!

Date:

Astronomy

Dec. 31, 1969 Rise Set
Actual Time Sun does not rise Sun does not rise
Civil Twilight Sun does not rise Sun does not rise
Nautical Twilight Sun does not rise Sun does not rise
Astronomical Twilight Sun does not rise Sun does not rise
Moon No Moon Rise No Moon Set
Length of Visible Light 24h 00m
Length of Day
24h 00m
New Moon, 1% of the Moon is Illuminated
May 29
New Moon
Jun 5
First Quarter
Jun 12
Full
Jun 19
Last Quarter
Jun 27
New

Hourly Weather History & Observations

Time (CDT) Temp. Windchill Dew Point Humidity Pressure Visibility Wind Dir Wind Speed Gust Speed Precip Events Conditions
12:00 AM 14.0 °F 8.2 °F 12.2 °F 93% 30.17 in 15.0 mi North 3.5 mph - N/A   Partly Cloudy
1:00 AM 13 °F - 12 °F 93% 30.17 in 15 mi West 2.3 mph - -   Partly Cloudy
1:00 AM 12.2 °F - 12.2 °F 100% 30.17 in 15.0 mi West 2.3 mph - N/A   Mostly Cloudy
2:00 AM 12.2 °F - 10.4 °F 92% 30.17 in 15.0 mi Calm Calm - N/A   Scattered Clouds
3:00 AM 12.2 °F - 6.8 °F 79% 30.18 in 15.0 mi Calm Calm - N/A   Partly Cloudy
4:00 AM 12.2 °F - 8.6 °F 85% 30.17 in 15.0 mi Calm Calm - N/A   Partly Cloudy
5:00 AM 12.2 °F - 8.6 °F 85% 30.17 in 12.0 mi Calm Calm - N/A   Mostly Cloudy
6:00 AM 10.4 °F 4.0 °F 6.8 °F 85% 30.17 in 12.0 mi SE 3.5 mph - N/A   Mostly Cloudy
7:00 AM 12 °F - 10 °F 88% 30.15 in 12 mi ESE 4.6 mph - -   Mostly Cloudy
7:00 AM 12.2 °F 4.3 °F 10.4 °F 92% 30.15 in 12.0 mi ESE 4.6 mph - N/A   Mostly Cloudy
8:00 AM 10.4 °F 0.8 °F 8.6 °F 92% 30.14 in 15.0 mi SSE 5.8 mph - N/A   Overcast
9:00 AM 15.8 °F 7.2 °F 12.2 °F 86% 30.12 in 15.0 mi SSE 5.8 mph - N/A   Overcast
10:00 AM 17.6 °F 9.3 °F 14.0 °F 86% 30.10 in 15.0 mi SE 5.8 mph - N/A   Overcast
11:00 AM 17.6 °F 3.7 °F 10.4 °F 73% 30.07 in 15.0 mi ESE 13.8 mph - N/A   Overcast
12:00 PM 19.4 °F 4.1 °F 12.2 °F 74% 30.05 in 15.0 mi ESE 18.4 mph - N/A   Overcast
12:32 PM - - - N/A% - 10.0 mi ESE 20.7 mph - N/A   Unknown
1:00 PM 18 °F - 13 °F 71% 30.04 in 4 mi ESE 19.6 mph - - Snow Light Snow
1:00 PM 19.4 °F 3.6 °F 12.2 °F 74% 30.04 in 4.0 mi ESE 19.6 mph - N/A Snow Light Snow
1:43 PM - - - N/A% - 1.5 mi ESE 17.3 mph - N/A   Unknown
2:00 PM 17.6 °F 2.7 °F 14.0 °F 86% 30.02 in 1.5 mi East 16.1 mph - N/A Snow Light Snow
3:00 PM 17.6 °F -0.3 °F 15.8 °F 93% 29.98 in 1.5 mi East 24.2 mph - N/A Snow Light Snow
3:03 PM - - - N/A% - 0.5 mi East 24.2 mph - N/A   Unknown
4:00 PM 17.6 °F -0.6 °F 15.8 °F 93% 29.95 in 0.5 mi East 25.3 mph - N/A Snow Light Snow
4:44 PM - - - N/A% - 2.0 mi East 24.2 mph - N/A   Unknown
5:00 PM 19.4 °F 2.5 °F 15.8 °F 86% 29.93 in 1.8 mi East 23.0 mph 28.8 mph N/A Snow Light Snow
5:29 PM - - - N/A% - 0.5 mi East 20.7 mph 27.6 mph N/A   Unknown
5:48 PM - - - N/A% - 0.6 mi East 23.0 mph 28.8 mph N/A   Unknown
6:00 PM 21.2 °F 6.8 °F 17.6 °F 86% 29.91 in 0.5 mi East 17.3 mph 24.2 mph N/A Snow Light Snow
6:23 PM - - - N/A% - 2.5 mi East 20.7 mph 26.5 mph N/A   Unknown
7:00 PM 20 °F - 18 °F 86% 29.91 in 4 mi East 21.9 mph - - Snow Light Snow
7:00 PM 21.2 °F 5.6 °F 17.6 °F 86% 29.91 in 4.0 mi East 20.7 mph - N/A Snow Light Snow
8:00 PM 21.2 °F 4.9 °F 17.6 °F 86% 29.89 in 9.0 mi East 23.0 mph - N/A Snow Light Snow
9:00 PM 21.2 °F 6.8 °F 17.6 °F 86% 29.88 in 8.0 mi East 17.3 mph - N/A Snow Light Snow
10:00 PM 21.2 °F 6.8 °F 19.4 °F 93% 29.88 in 7.0 mi East 17.3 mph - N/A Snow Light Snow
11:00 PM 21.2 °F 7.3 °F 19.4 °F 93% 29.88 in 7.0 mi NE 16.1 mph - N/A Snow Light Snow